OBJECT WU

基本信息
目录编号:
60954
目录名称:
OBJECT WU
国际标识:
1998-067WU
轨道中心:
EARTH
物体状态:
已陨落(2024-12-03)
发射日期:
1998-11-20 UTC
国别:
(TBD)
轨道信息
数据来源: 国际轨道数据
星历时间: 2024-11-27T09:38:19+0800
半长轴: 6616.512km
偏心率: 0.0010323
轨道倾角: 51.612°
近地点辐角: 214.718°
升交点赤经: 217.811°
平近点角: 145.316°
近地点: 231.546km
远地点: 245.208km
周期: 89.270分钟
每日圈数: 16.130921
详细信息
发射场:
TTMTR
轨道高度:
LEO
数据来源:
AOE Integration Group
参考系:
TEME
时间系统:
UTC
历元类型:
SGP4
2D轨道图
3D轨道图
轨道高度分析图
轨道倾角分析图
轨道综合分析图
查看轨道综合分析图